| time (UTC) | temp F | wind direction | speed knots | gust knots | rain 1hr in | rain 24hr in | rain mn in | humidity % | barometer mb |
| 20260506113004 | 73 | 209 | 0.0 | 0.0 | 0.00 | 0.00 | 0.00 | 93 | 1010.1 |
| 20260506111503 | 73 | 211 | 0.0 | 3.5 | 0.00 | 0.00 | 0.00 | 93 | 1010.1 |
| 20260506110005 | 73 | 181 | 0.0 | 0.9 | 0.00 | 0.00 | 0.00 | 92 | 1010.0 |
| 20260506104501 | 73 | 182 | 0.0 | 0.9 | 0.00 | 0.00 | 0.00 | 93 | 1009.8 |
| 20260506103100 | 73 | 182 | 0.0 | 3.5 | 0.00 | 0.00 | 0.00 | 93 | 1009.6 |
| 20260506101558 | 73 | 206 | 0.0 | 3.5 | 0.00 | 0.00 | 0.00 | 93 | 1009.6 |
| 20260506100057 | 74 | 197 | 0.0 | 0.9 | 0.00 | 0.00 | 0.00 | 93 | 1009.3 |
| 20260506094556 | 74 | 192 | 0.0 | 5.2 | 0.00 | 0.00 | 0.00 | 93 | 1009.0 |
| 20260506093110 | 74 | 202 | 0.9 | 5.2 | 0.00 | 0.00 | 0.00 | 92 | 1008.9 |
| 20260506091554 | 74 | 193 | 0.0 | 6.1 | 0.00 | 0.00 | 0.00 | 92 | 1008.7 |
| 20260506090058 | 74 | 185 | 0.0 | 3.5 | 0.00 | 0.00 | 0.00 | 92 | 1008.4 |
| 20260506084554 | 74 | 188 | 0.9 | 7.0 | 0.00 | 0.00 | 0.00 | 92 | 1008.6 |
| 20260506083053 | 74 | 198 | 0.0 | 6.1 | 0.00 | 0.00 | 0.00 | 92 | 1008.7 |
| 20260506081551 | 74 | 205 | 1.7 | 8.7 | 0.00 | 0.00 | 0.00 | 92 | 1008.5 |
| 20260506073049 | 74 | 206 | 0.0 | 4.3 | 0.00 | 0.00 | 0.00 | 91 | 1008.9 |
| 20260506071547 | 74 | 228 | 1.7 | 7.8 | 0.00 | 0.00 | 0.00 | 91 | 1009.1 |
| 20260506061557 | 74 | 188 | 0.9 | 7.8 | 0.00 | 0.00 | 0.00 | 91 | 1009.2 |
| 20260506044537 | 75 | 146 | 0.9 | 6.1 | 0.00 | 0.00 | 0.00 | 90 | 1009.0 |
| 20260506043035 | 75 | 214 | 0.9 | 6.1 | 0.00 | 0.00 | 0.00 | 89 | 1009.1 |
| 20260506041535 | 75 | 184 | 0.9 | 5.2 | 0.00 | 0.00 | 0.00 | 89 | 1009.0 |
| 20260506040034 | 76 | 221 | 1.7 | 6.1 | 0.00 | 0.00 | 0.00 | 88 | 1008.8 |
| 20260506034534 | 76 | 44 | 0.9 | 6.1 | 0.00 | 0.00 | 0.00 | 88 | 1008.6 |
| 20260506033034 | 76 | 117 | 0.0 | 5.2 | 0.00 | 0.00 | 0.00 | 88 | 1008.6 |
| 20260506031533 | 76 | 107 | 0.9 | 5.2 | 0.00 | 0.00 | 0.00 | 87 | 1008.5 |
| 20260506030034 | 77 | 158 | 0.0 | 6.1 | 0.00 | 0.00 | 0.00 | 86 | 1008.1 |
| 20260506024531 | 77 | 174 | 0.9 | 7.8 | 0.00 | 0.00 | 0.00 | 85 | 1008.0 |
| 20260506023031 | 77 | 118 | 0.9 | 5.2 | 0.00 | 0.00 | 0.00 | 84 | 1007.7 |
| 20260506021530 | 78 | 134 | 0.0 | 3.5 | 0.00 | 0.00 | 0.00 | 83 | 1007.4 |
| 20260506020100 | 78 | 125 | 0.0 | 6.1 | 0.00 | 0.00 | 0.00 | 83 | 1007.0 |
| 20260506014529 | 78 | 109 | 0.9 | 3.5 | 0.00 | 0.00 | 0.00 | 82 | 1007.0 |
| 20260506013029 | 79 | 209 | 0.0 | 2.6 | 0.00 | 0.00 | 0.00 | 81 | 1007.0 |
| 20260506011528 | 79 | 130 | 0.0 | 2.6 | 0.00 | 0.00 | 0.00 | 80 | 1007.0 |
| 20260506010030 | 80 | 149 | 0.0 | 2.6 | 0.00 | 0.00 | 0.00 | 79 | 1007.0 |
| 20260506004526 | 80 | 119 | 0.0 | 2.6 | 0.00 | 0.00 | 0.00 | 79 | 1007.0 |
| 20260506003026 | 81 | 155 | 0.0 | 3.5 | 0.00 | 0.00 | 0.00 | 78 | 1007.0 |
| 20260506001525 | 81 | 182 | 0.0 | 1.7 | 0.00 | 0.00 | 0.00 | 77 | 1007.1 |
| 20260506000041 | 81 | 182 | 0.0 | 7.0 | 0.00 | 0.00 | 0.00 | 77 | 1006.9 |
| 20260505234524 | 81 | 165 | 0.9 | 4.3 | 0.00 | 0.00 | 0.00 | 75 | 1006.7 |
| 20260505233022 | 82 | 217 | 0.0 | 7.0 | 0.00 | 0.00 | 0.00 | 75 | 1006.6 |
| 20260505231528 | 82 | 175 | 1.7 | 7.0 | 0.00 | 0.00 | 0.00 | 75 | 1006.5 |
| 20260505230034 | 83 | 136 | 0.9 | 4.3 | 0.00 | 0.00 | 0.00 | 75 | 1006.5 |
| 20260505224522 | 83 | 250 | 0.9 | 6.1 | 0.00 | 0.00 | 0.00 | 74 | 1006.5 |
| 20260505223021 | 83 | 203 | 0.9 | 3.5 | 0.00 | 0.00 | 0.00 | 75 | 1006.3 |
| 20260505221519 | 83 | 216 | 2.6 | 5.2 | 0.00 | 0.00 | 0.00 | 73 | 1006.3 |
| 20260505220018 | 83 | 190 | 0.9 | 8.7 | 0.00 | 0.00 | 0.00 | 73 | 1006.5 |
| 20260505214516 | 83 | 174 | 1.7 | 9.6 | 0.00 | 0.00 | 0.00 | 72 | 1006.8 |
| 20260505213016 | 83 | 234 | 1.7 | 7.8 | 0.00 | 0.00 | 0.00 | 73 | 1006.9 |
| 20260505211518 | 84 | 185 | 0.9 | 7.0 | 0.00 | 0.00 | 0.00 | 73 | 1007.1 |
| 20260505210010 | 84 | 234 | 2.6 | 10.4 | 0.00 | 0.00 | 0.00 | 73 | 1007.2 |
| 20260505204508 | 84 | 240 | 1.7 | 7.0 | 0.00 | 0.00 | 0.00 | 74 | 1007.2 |
| 20260505203013 | 83 | 211 | 0.9 | 11.3 | 0.00 | 0.00 | 0.00 | 74 | 1007.6 |
| 20260505201505 | 83 | 175 | 2.6 | 8.7 | 0.00 | 0.00 | 0.00 | 75 | 1007.8 |
| 20260505200001 | 82 | 221 | 1.7 | 10.4 | 0.00 | 0.00 | 0.00 | 76 | 1008.1 |
| 20260505194600 | 82 | 171 | 0.9 | 5.2 | 0.00 | 0.00 | 0.00 | 76 | 1008.4 |
| 20260505193100 | 82 | 186 | 2.6 | 6.1 | 0.00 | 0.00 | 0.00 | 77 | 1008.5 |
| 20260505191603 | 82 | 175 | 0.0 | 4.3 | 0.00 | 0.00 | 0.00 | 78 | 1008.6 |
| 20260505190055 | 80 | 269 | 0.0 | 7.0 | 0.00 | 0.00 | 0.00 | 79 | 1008.6 |
| 20260505184549 | 79 | 219 | 0.9 | 6.1 | 0.00 | 0.00 | 0.00 | 80 | 1008.8 |
| 20260505183047 | 78 | 220 | 0.9 | 7.8 | 0.00 | 0.00 | 0.00 | 81 | 1009.1 |
| 20260505181605 | 77 | 211 | 0.9 | 4.3 | 0.00 | 0.00 | 0.00 | 82 | 1009.3 |
| 20260505180047 | 76 | 209 | 2.6 | 7.8 | 0.00 | 0.00 | 0.00 | 83 | 1009.2 |
| 20260505174539 | 75 | 266 | 2.6 | 7.0 | 0.00 | 0.00 | 0.00 | 84 | 1009.6 |
| 20260505173033 | 74 | 240 | 0.0 | 7.0 | 0.00 | 0.00 | 0.00 | 86 | 1009.8 |
| 20260505171537 | 74 | 232 | 0.0 | 6.1 | 0.00 | 0.00 | 0.00 | 87 | 1009.8 |
| 20260505170028 | 73 | 223 | 0.9 | 5.2 | 0.00 | 0.00 | 0.00 | 88 | 1009.9 |
| 20260505164523 | 72 | 211 | 0.0 | 4.3 | 0.00 | 0.00 | 0.00 | 89 | 1009.9 |
| 20260505163019 | 72 | 215 | 0.9 | 5.2 | 0.00 | 0.00 | 0.00 | 90 | 1010.0 |
| 20260505161516 | 71 | 205 | 0.0 | 5.2 | 0.00 | 0.00 | 0.00 | 91 | 1010.0 |
| 20260505160115 | 71 | 234 | 1.7 | 4.3 | 0.00 | 0.00 | 0.00 | 91 | 1010.0 |
| 20260505153025 | 70 | 218 | 0.9 | 8.7 | 0.00 | 0.00 | 0.00 | 92 | 1010.2 |
| 20260505151510 | 70 | 199 | 1.7 | 7.0 | 0.00 | 0.00 | 0.00 | 92 | 1010.0 |
| 20260505124507 | 69 | 149 | 0.9 | 7.8 | 0.00 | 0.00 | 0.00 | 92 | 1008.7 |
| 20260505123004 | 69 | 183 | 0.9 | 5.2 | 0.00 | 0.00 | 0.00 | 92 | 1008.6 |
| 20260505121503 | 69 | 188 | 0.9 | 7.8 | 0.00 | 0.00 | 0.00 | 92 | 1008.3 |
| 20260505120003 | 69 | 172 | 0.9 | 6.1 | 0.00 | 0.00 | 0.00 | 92 | 1008.2 |
| 20260505114503 | 68 | 169 | 0.9 | 4.3 | 0.00 | 0.00 | 0.00 | 92 | 1008.1 |